QPF
0.01 0.01 0.01 0.01 0.02 0.02 0.01 0.01 0.01 0.02 0.02 0.01 0.01 0.01 0.01 0.01 0.01 0.00 0.00 0.01 0.01 0.01 0.01 0.00 0.00 0.00 0.00 0.00 0.00 0.00 0.00 0.00 0.00 0.00 0.01 0.01 0.01 0.01 0.01 0.01 0.00 0.00 0.01
0.01 0.01 0.01 0.01 0.01 0.02 0.02 0.02 0.02 0.02 0.03 0.03 0.03 0.01 0.01 0.01 0.02 0.01 0.01 0.01 0.01 0.01 0.02 0.00 0.00 0.00 0.00 0.00 0.00 0.00 0.01 0.00 0.00 0.00 0.00 0.01 0.00 0.00 0.01 0.01 0.00 0.01 0.01
0.01 0.02 0.01 0.01 0.02 0.02 0.02 0.02 0.02 0.02 0.03 0.03 0.04 0.04 0.03 0.02 0.01 0.02 0.01 0.01 0.03 0.02 0.02 0.01 0.01 0.01 0.01 0.00 0.00 0.00 0.00 0.00 0.00 0.00 0.00 0.00 0.00 0.00 0.00 0.00 0.01 0.01 0.02
0.01 0.01 0.01 0.01 0.02 0.02 0.02 0.02 0.02 0.03 0.03 0.03 0.04 0.05 0.05 0.04 0.03 0.02 0.02 0.02 0.03 0.03 0.03 0.02 0.00 0.01 0.01 0.00 0.00 0.00 0.00 0.00 0.00 0.01 0.01 0.00 0.00 0.00 0.00 0.01 0.02 0.02 0.02
0.02 0.02 0.02 0.02 0.02 0.02 0.03 0.03 0.03 0.03 0.03 0.04 0.04 0.06 0.06 0.06 0.04 0.03 0.02 0.03 0.03 0.02 0.02 0.02 0.01 0.00 0.00 0.00 0.00 0.00 0.00 0.00 0.00 0.00 0.00 0.00 0.00 0.00 0.00 0.01 0.01 0.01 0.00
0.02 0.02 0.02 0.02 0.02 0.02 0.02 0.02 0.03 0.03 0.04 0.04 0.04 0.05 0.05 0.05 0.05 0.04 0.04 0.03 0.02 0.02 0.02 0.02 0.01 0.01 0.01 0.01 0.01 0.00 0.00 0.00 0.00 0.00 0.00 0.00 0.00 0.00 0.00 0.00 0.00 0.00 0.00
0.02 0.04 0.04 0.03 0.03 0.03 0.02 0.02 0.02 0.03 0.03 0.04 0.04 0.04 0.05 0.06 0.06 0.07 0.06 0.04 0.02 0.01 0.02 0.02 0.02 0.01 0.01 0.01 0.01 0.00 0.00 0.00 0.00 0.00 0.00 0.00 0.00 0.01 0.00 0.00 0.00 0.00 0.00
0.01 0.03 0.04 0.04 0.03 0.02 0.03 0.03 0.02 0.02 0.02 0.03 0.04 0.04 0.04 0.05 0.06 0.07 0.08 0.05 0.03 0.02 0.02 0.02 0.02 0.02 0.02 0.02 0.02 0.01 0.00 0.00 0.00 0.00 0.00 0.00 0.01 0.00 0.00 0.00 0.00 0.00 0.00
0.01 0.02 0.02 0.03 0.03 0.03 0.03 0.03 0.03 0.01 0.02 0.02 0.03 0.03 0.03 0.03 0.04 0.05 0.07 0.06 0.04 0.03 0.02 0.02 0.01 0.01 0.02 0.02 0.02 0.01 0.00 0.00 0.00 0.00 0.00 0.00 0.00 0.00 0.00 0.00 0.00 0.00 0.00
0.01 0.01 0.01 0.02 0.03 0.02 0.02 0.02 0.03 0.02 0.02 0.01 0.01 0.02 0.02 0.02 0.02 0.03 0.03 0.03 0.04 0.04 0.03 0.02 0.02 0.01 0.02 0.02 0.01 0.01 0.00 0.00 0.00 0.00 0.00 0.00 0.00 0.00 0.00 0.00 0.00 0.00 0.00
0.01 0.01 0.01 0.01 0.02 0.03 0.03 0.02 0.02 0.02 0.02 0.02 0.01 0.01 0.02 0.02 0.02 0.02 0.02 0.01 0.02 0.04 0.04 0.03 0.02 0.02 0.01 0.01 0.01 0.00 0.00 0.00 0.00 0.00 0.00 0.00 0.00 0.00 0.00 0.00 0.00 0.00 0.00
0.00 0.01 0.01 0.02 0.02 0.03 0.04 0.03 0.02 0.01 0.01 0.01 0.02 0.01 0.01 0.02 0.03 0.03 0.03 0.02 0.03 0.04 0.05 0.05 0.03 0.02 0.01 0.00 0.00 0.00 0.00 0.00 0.00 0.00 0.00 0.00 0.00 0.00 0.00 0.00 0.00 0.00 0.00
0.00 0.01 0.01 0.01 0.02 0.03 0.04 0.03 0.02 0.01 0.01 0.01 0.01 0.01 0.02 0.02 0.02 0.03 0.03 0.03 0.04 0.05 0.05 0.04 0.04 0.02 0.01 0.00 0.00 0.00 0.00 0.00 0.00 0.00 0.00 0.00 0.00 0.00 0.00 0.00 0.00 0.00 0.00
0.00 0.00 0.00 0.01 0.02 0.03 0.03 0.03 0.03 0.01 0.01 0.01 0.01 0.01 0.03 0.03 0.03 0.04 0.04 0.04 0.04 0.04 0.04 0.03 0.03 0.02 0.02 0.01 0.01 0.01 0.01 0.01 0.00 0.00 0.00 0.00 0.00 0.00 0.00 0.00 0.00 0.00 0.00
0.00 0.00 0.00 0.00 0.00 0.01 0.02 0.03 0.03 0.03 0.02 0.02 0.01 0.02 0.02 0.02 0.03 0.04 0.05 0.07 0.07 0.07 0.06 0.05 0.05 0.04 0.03 0.02 0.02 0.01 0.01 0.01 0.01 0.01 0.00 0.00 0.00 0.00 0.00 0.00 0.00 0.00 0.00
0.00 0.00 0.00 0.00 0.00 0.00 0.01 0.02 0.03 0.03 0.03 0.03 0.02 0.02 0.03 0.03 0.03 0.04 0.05 0.06 0.07 0.08 0.09 0.09 0.08 0.07 0.06 0.04 0.03 0.02 0.02 0.02 0.02 0.01 0.01 0.01 0.00 0.00 0.00 0.00 0.01 0.01 0.00
0.00 0.00 0.00 0.00 0.00 0.00 0.00 0.00 0.00 0.01 0.02 0.03 0.03 0.02 0.05 0.05 0.04 0.05 0.06 0.05 0.05 0.07 0.09 0.10 0.10 0.09 0.08 0.06 0.04 0.04 0.03 0.03 0.02 0.02 0.02 0.01 0.01 0.00 0.00 0.01 0.01 0.01 0.01
0.00 0.00 0.00 0.00 0.00 0.00 0.00 0.00 0.00 0.00 0.01 0.01 0.02 0.02 0.03 0.05 0.06 0.07 0.08 0.06 0.05 0.08 0.09 0.10 0.10 0.09 0.07 0.06 0.04 0.04 0.04 0.03 0.03 0.04 0.04 0.03 0.02 0.01 0.01 0.01 0.01 0.01 0.01
0.00 0.00 0.00 0.00 0.00 0.00 0.00 0.00 0.00 0.01 0.01 0.01 0.01 0.02 0.03 0.04 0.06 0.09 0.10 0.10 0.11 0.10 0.10 0.11 0.11 0.10 0.09 0.09 0.08 0.07 0.06 0.04 0.03 0.03 0.03 0.03 0.03 0.02 0.02 0.02 0.02 0.01 0.02
0.00 0.00 0.00 0.00 0.00 0.00 0.00 0.00 0.01 0.01 0.01 0.02 0.03 0.03 0.03 0.04 0.06 0.09 0.13 0.15 0.17 0.16 0.13 0.12 0.11 0.11 0.10 0.11 0.13 0.14 0.12 0.08 0.06 0.04 0.04 0.03 0.03 0.03 0.03 0.02 0.02 0.01 0.01
0.00 0.00 0.00 0.00 0.00 0.00 0.00 0.01 0.01 0.01 0.03 0.03 0.02 0.02 0.02 0.04 0.05 0.10 0.14 0.19 0.22 0.23 0.21 0.19 0.16 0.14 0.12 0.11 0.12 0.12 0.12 0.12 0.10 0.07 0.05 0.05 0.04 0.03 0.03 0.02 0.02 0.01 0.01
0.00 0.00 0.00 0.01 0.00 0.00 0.00 0.01 0.02 0.02 0.03 0.03 0.02 0.02 0.02 0.03 0.05 0.08 0.13 0.17 0.22 0.26 0.28 0.29 0.27 0.21 0.17 0.15 0.13 0.13 0.12 0.10 0.08 0.07 0.06 0.05 0.04 0.03 0.03 0.02 0.02 0.02 0.02
0.00 0.00 0.00 0.00 0.00 0.00 0.00 0.01 0.01 0.02 0.04 0.05 0.03 0.03 0.03 0.02 0.03 0.05 0.08 0.12 0.15 0.20 0.23 0.26 0.27 0.27 0.23 0.20 0.17 0.17 0.14 0.11 0.08 0.06 0.05 0.05 0.04 0.04 0.04 0.04 0.03 0.02 0.02
0.00 0.00 0.00 0.00 0.00 0.00 0.00 0.00 0.02 0.03 0.04 0.04 0.04 0.04 0.04 0.03 0.03 0.04 0.05 0.07 0.09 0.13 0.17 0.19 0.21 0.23 0.23 0.22 0.21 0.17 0.12 0.10 0.10 0.08 0.06 0.06 0.06 0.05 0.05 0.05 0.04 0.03 0.03
0.00 0.00 0.00 0.00 0.00 0.00 0.00 0.00 0.01 0.03 0.04 0.06 0.06 0.04 0.04 0.04 0.04 0.03 0.03 0.03 0.04 0.06 0.10 0.13 0.14 0.16 0.19 0.21 0.23 0.24 0.22 0.18 0.14 0.12 0.09 0.07 0.07 0.07 0.07 0.06 0.05 0.04 0.04
0.00 0.00 0.00 0.00 0.00 0.00 0.00 0.00 0.01 0.01 0.01 0.03 0.04 0.05 0.06 0.04 0.04 0.04 0.04 0.03 0.03 0.03 0.05 0.08 0.10 0.11 0.13 0.16 0.18 0.20 0.22 0.22 0.20 0.18 0.14 0.09 0.08 0.07 0.06 0.06 0.06 0.05 0.04
MSLP
1016.84 1016.02 1015.36 1014.96 1014.85 1014.97 1015.23 1015.53 1015.75 1015.85 1015.81 1015.67 1015.51 1015.41 1015.39 1015.49 1015.67 1015.88 1016.07 1016.19 1016.22 1016.17 1016.09 1016.01 1015.99 1016.04 1016.16 1016.31 1016.47 1016.59 1016.64 1016.64 1016.60 1016.54 1016.50 1016.50 1016.53 1016.58 1016.62 1016.63 1016.59 1016.49 1016.36
1016.91 1016.08 1015.42 1015.03 1014.93 1015.06 1015.33 1015.63 1015.85 1015.96 1015.93 1015.82 1015.69 1015.61 1015.62 1015.72 1015.90 1016.09 1016.25 1016.34 1016.35 1016.29 1016.20 1016.13 1016.12 1016.18 1016.30 1016.45 1016.59 1016.70 1016.75 1016.74 1016.69 1016.64 1016.62 1016.64 1016.69 1016.75 1016.81 1016.82 1016.78 1016.69 1016.56
1016.92 1016.09 1015.44 1015.08 1015.00 1015.15 1015.43 1015.73 1015.97 1016.09 1016.09 1016.01 1015.91 1015.85 1015.87 1015.96 1016.11 1016.28 1016.40 1016.45 1016.43 1016.35 1016.26 1016.19 1016.19 1016.26 1016.38 1016.52 1016.66 1016.75 1016.79 1016.79 1016.76 1016.73 1016.73 1016.77 1016.84 1016.92 1016.98 1017.00 1016.96 1016.87 1016.76
1016.88 1016.07 1015.47 1015.14 1015.09 1015.26 1015.55 1015.86 1016.10 1016.23 1016.24 1016.19 1016.11 1016.06 1016.08 1016.16 1016.28 1016.40 1016.48 1016.49 1016.45 1016.36 1016.27 1016.21 1016.21 1016.28 1016.41 1016.55 1016.68 1016.77 1016.82 1016.83 1016.82 1016.83 1016.86 1016.92 1017.00 1017.08 1017.14 1017.16 1017.12 1017.04 1016.95
1016.83 1016.09 1015.54 1015.26 1015.24 1015.42 1015.70 1015.99 1016.21 1016.33 1016.35 1016.30 1016.24 1016.20 1016.22 1016.28 1016.37 1016.45 1016.49 1016.47 1016.40 1016.31 1016.23 1016.18 1016.20 1016.28 1016.41 1016.55 1016.68 1016.78 1016.84 1016.87 1016.90 1016.93 1016.99 1017.07 1017.16 1017.24 1017.28 1017.29 1017.25 1017.18 1017.11
1016.85 1016.18 1015.70 1015.47 1015.47 1015.64 1015.89 1016.13 1016.30 1016.39 1016.38 1016.32 1016.26 1016.23 1016.24 1016.29 1016.35 1016.40 1016.41 1016.37 1016.30 1016.22 1016.15 1016.13 1016.17 1016.27 1016.40 1016.54 1016.68 1016.78 1016.86 1016.92 1016.98 1017.05 1017.13 1017.22 1017.30 1017.37 1017.39 1017.38 1017.34 1017.28 1017.23
1016.98 1016.39 1015.99 1015.80 1015.81 1015.94 1016.12 1016.27 1016.37 1016.38 1016.33 1016.25 1016.18 1016.15 1016.15 1016.19 1016.24 1016.27 1016.27 1016.22 1016.16 1016.09 1016.05 1016.06 1016.13 1016.24 1016.38 1016.53 1016.67 1016.79 1016.88 1016.97 1017.05 1017.14 1017.24 1017.33 1017.41 1017.45 1017.46 1017.43 1017.37 1017.33 1017.31
1017.23 1016.73 1016.40 1016.25 1016.23 1016.30 1016.38 1016.42 1016.41 1016.33 1016.22 1016.11 1016.02 1015.99 1015.99 1016.03 1016.07 1016.09 1016.07 1016.03 1015.98 1015.93 1015.93 1015.97 1016.06 1016.19 1016.35 1016.50 1016.65 1016.77 1016.88 1016.98 1017.08 1017.19 1017.29 1017.38 1017.44 1017.47 1017.45 1017.40 1017.35 1017.32 1017.33
1017.60 1017.19 1016.92 1016.78 1016.73 1016.70 1016.67 1016.58 1016.44 1016.27 1016.09 1015.94 1015.84 1015.81 1015.81 1015.85 1015.87 1015.88 1015.86 1015.82 1015.77 1015.75 1015.77 1015.84 1015.96 1016.11 1016.28 1016.43 1016.58 1016.70 1016.81 1016.91 1017.02 1017.13 1017.24 1017.32 1017.37 1017.38 1017.36 1017.31 1017.26 1017.25 1017.29
1018.06 1017.73 1017.50 1017.36 1017.24 1017.12 1016.95 1016.74 1016.48 1016.22 1015.98 1015.80 1015.70 1015.66 1015.67 1015.69 1015.71 1015.69 1015.65 1015.59 1015.54 1015.53 1015.57 1015.66 1015.80 1015.97 1016.14 1016.30 1016.44 1016.55 1016.64 1016.74 1016.84 1016.95 1017.05 1017.13 1017.18 1017.19 1017.17 1017.13 1017.11 1017.12 1017.20
1018.56 1018.30 1018.09 1017.92 1017.74 1017.51 1017.23 1016.89 1016.54 1016.20 1015.92 1015.73 1015.62 1015.58 1015.58 1015.59 1015.58 1015.53 1015.45 1015.36 1015.29 1015.27 1015.32 1015.42 1015.58 1015.76 1015.94 1016.09 1016.21 1016.31 1016.38 1016.46 1016.54 1016.64 1016.73 1016.82 1016.87 1016.90 1016.90 1016.89 1016.89 1016.94 1017.05
1019.07 1018.85 1018.65 1018.44 1018.18 1017.86 1017.47 1017.03 1016.60 1016.22 1015.91 1015.71 1015.60 1015.57 1015.56 1015.54 1015.48 1015.38 1015.25 1015.12 1015.02 1014.98 1015.01 1015.12 1015.29 1015.48 1015.66 1015.80 1015.91 1015.98 1016.03 1016.08 1016.14 1016.22 1016.30 1016.39 1016.46 1016.52 1016.55 1016.58 1016.62 1016.71 1016.85
1019.55 1019.35 1019.13 1018.88 1018.55 1018.14 1017.66 1017.15 1016.67 1016.25 1015.94 1015.74 1015.63 1015.59 1015.56 1015.50 1015.39 1015.23 1015.04 1014.85 1014.71 1014.64 1014.66 1014.77 1014.94 1015.13 1015.31 1015.46 1015.55 1015.60 1015.62 1015.64 1015.67 1015.73 1015.80 1015.90 1015.99 1016.07 1016.15 1016.22 1016.31 1016.42 1016.58
1019.99 1019.79 1019.55 1019.24 1018.84 1018.35 1017.81 1017.25 1016.73 1016.30 1015.98 1015.78 1015.67 1015.61 1015.54 1015.44 1015.27 1015.05 1014.79 1014.55 1014.36 1014.26 1014.26 1014.37 1014.54 1014.74 1014.92 1015.07 1015.15 1015.18 1015.18 1015.17 1015.18 1015.22 1015.29 1015.38 1015.49 1015.61 1015.72 1015.83 1015.95 1016.08 1016.24
1020.39 1020.18 1019.90 1019.54 1019.07 1018.53 1017.93 1017.33 1016.79 1016.34 1016.01 1015.80 1015.67 1015.57 1015.47 1015.31 1015.09 1014.81 1014.49 1014.20 1013.97 1013.85 1013.84 1013.93 1014.10 1014.31 1014.50 1014.64 1014.73 1014.76 1014.74 1014.72 1014.71 1014.73 1014.79 1014.89 1015.01 1015.15 1015.29 1015.43 1015.56 1015.70 1015.84
1020.78 1020.55 1020.23 1019.81 1019.29 1018.70 1018.06 1017.43 1016.86 1016.39 1016.03 1015.78 1015.61 1015.47 1015.31 1015.10 1014.83 1014.50 1014.15 1013.82 1013.57 1013.42 1013.40 1013.48 1013.65 1013.85 1014.05 1014.20 1014.29 1014.33 1014.32 1014.29 1014.27 1014.29 1014.34 1014.44 1014.56 1014.71 1014.85 1015.00 1015.13 1015.26 1015.38
1021.18 1020.92 1020.56 1020.09 1019.54 1018.90 1018.23 1017.57 1016.97 1016.46 1016.06 1015.75 1015.52 1015.31 1015.10 1014.83 1014.51 1014.15 1013.78 1013.44 1013.17 1013.01 1012.97 1013.03 1013.19 1013.38 1013.57 1013.74 1013.84 1013.89 1013.90 1013.89 1013.88 1013.89 1013.94 1014.03 1014.14 1014.27 1014.41 1014.54 1014.66 1014.76 1014.85
1021.60 1021.30 1020.91 1020.41 1019.83 1019.17 1018.48 1017.80 1017.16 1016.60 1016.13 1015.75 1015.44 1015.15 1014.86 1014.55 1014.20 1013.82 1013.44 1013.09 1012.82 1012.64 1012.57 1012.61 1012.73 1012.90 1013.08 1013.24 1013.36 1013.44 1013.48 1013.49 1013.50 1013.52 1013.56 1013.63 1013.72 1013.82 1013.93 1014.03 1014.12 1014.20 1014.26
1022.01 1021.69 1021.28 1020.77 1020.18 1019.52 1018.82 1018.12 1017.45 1016.84 1016.29 1015.83 1015.42 1015.05 1014.69 1014.33 1013.95 1013.56 1013.18 1012.83 1012.55 1012.35 1012.24 1012.23 1012.29 1012.42 1012.57 1012.72 1012.85 1012.95 1013.03 1013.08 1013.11 1013.14 1013.17 1013.21 1013.26 1013.32 1013.38 1013.44 1013.50 1013.55 1013.60
1022.41 1022.08 1021.66 1021.15 1020.57 1019.93 1019.24 1018.54 1017.85 1017.19 1016.58 1016.02 1015.52 1015.07 1014.64 1014.24 1013.84 1013.45 1013.07 1012.72 1012.42 1012.18 1012.01 1011.93 1011.92 1011.97 1012.07 1012.19 1012.32 1012.45 1012.55 1012.63 1012.68 1012.72 1012.73 1012.74 1012.73 1012.73 1012.74 1012.75 1012.77 1012.81 1012.85
1022.75 1022.42 1022.01 1021.52 1020.97 1020.37 1019.72 1019.04 1018.35 1017.66 1016.99 1016.37 1015.79 1015.26 1014.78 1014.34 1013.92 1013.53 1013.15 1012.79 1012.46 1012.16 1011.93 1011.75 1011.64 1011.60 1011.63 1011.71 1011.82 1011.95 1012.07 1012.17 1012.23 1012.26 1012.25 1012.20 1012.14 1012.06 1012.00 1011.95 1011.94 1011.97 1012.03
1023.02 1022.69 1022.30 1021.85 1021.35 1020.81 1020.21 1019.58 1018.91 1018.22 1017.52 1016.85 1016.22 1015.65 1015.12 1014.65 1014.22 1013.82 1013.44 1013.06 1012.69 1012.34 1012.01 1011.73 1011.51 1011.37 1011.31 1011.33 1011.40 1011.51 1011.63 1011.73 1011.79 1011.79 1011.73 1011.63 1011.48 1011.33 1011.19 1011.08 1011.03 1011.05 1011.12
1023.20 1022.88 1022.51 1022.10 1021.67 1021.19 1020.67 1020.10 1019.48 1018.83 1018.14 1017.46 1016.81 1016.20 1015.66 1015.17 1014.73 1014.33 1013.93 1013.53 1013.12 1012.71 1012.29 1011.91 1011.58 1011.33 1011.18 1011.11 1011.13 1011.21 1011.30 1011.38 1011.41 1011.37 1011.25 1011.06 1010.83 1010.59 1010.36 1010.19 1010.09 1010.09 1010.17
1023.29 1022.99 1022.64 1022.28 1021.90 1021.50 1021.06 1020.58 1020.03 1019.44 1018.80 1018.14 1017.50 1016.89 1016.34 1015.85 1015.41 1015.00 1014.59 1014.18 1013.73 1013.25 1012.77 1012.30 1011.87 1011.52 1011.28 1011.14 1011.09 1011.11 1011.15 1011.19 1011.16 1011.06 1010.86 1010.59 1010.26 1009.92 1009.60 1009.36 1009.21 1009.16 1009.23
1023.31 1023.03 1022.70 1022.38 1022.05 1021.72 1021.37 1020.97 1020.52 1020.00 1019.43 1018.83 1018.22 1017.63 1017.10 1016.61 1016.18 1015.77 1015.36 1014.93 1014.46 1013.95 1013.41 1012.87 1012.38 1011.96 1011.63 1011.42 1011.31 1011.26 1011.24 1011.21 1011.11 1010.93 1010.64 1010.28 1009.85 1009.41 1009.01 1008.68 1008.46 1008.36 1008.38
1023.30 1023.03 1022.72 1022.42 1022.14 1021.87 1021.59 1021.28 1020.92 1020.50 1020.00 1019.47 1018.91 1018.37 1017.86 1017.40 1016.97 1016.57 1016.16 1015.72 1015.25 1014.72 1014.16 1013.60 1013.07 1012.60 1012.23 1011.96 1011.78 1011.67 1011.58 1011.47 1011.29 1011.02 1010.65 1010.19 1009.68 1009.15 1008.66 1008.24 1007.94 1007.76 1007.70
Thickness
5744 5748 5750 5751 5752 5752 5752 5752 5751 5751 5751 5750 5750 5750 5749 5749 5748 5748 5748 5747 5747 5746 5746 5745 5744 5743 5743 5742 5742 5741 5740 5739 5738 5737 5736 5736 5735 5735 5734 5733 5732 5732 5732
5743 5746 5747 5748 5749 5749 5749 5748 5748 5748 5748 5747 5747 5747 5746 5746 5745 5745 5744 5744 5743 5743 5743 5742 5741 5741 5740 5739 5739 5738 5737 5736 5735 5734 5733 5733 5732 5732 5731 5730 5730 5729 5729
5741 5742 5743 5744 5744 5745 5745 5745 5745 5744 5744 5744 5744 5744 5743 5743 5742 5742 5741 5741 5740 5740 5739 5739 5738 5737 5737 5736 5735 5735 5734 5733 5732 5731 5730 5729 5729 5729 5728 5727 5727 5726 5725
5736 5737 5738 5739 5740 5740 5741 5741 5741 5741 5741 5740 5740 5740 5740 5740 5739 5739 5738 5738 5737 5737 5736 5736 5735 5734 5733 5732 5732 5731 5730 5729 5728 5727 5727 5726 5726 5726 5725 5724 5724 5723 5722
5730 5732 5733 5734 5735 5736 5736 5737 5737 5737 5737 5737 5737 5737 5737 5736 5736 5736 5735 5735 5734 5733 5733 5732 5731 5730 5730 5729 5728 5728 5727 5726 5725 5724 5724 5723 5723 5723 5722 5721 5720 5720 5719
5723 5725 5727 5728 5729 5730 5731 5732 5732 5733 5733 5733 5733 5733 5733 5733 5733 5732 5732 5732 5731 5730 5729 5728 5727 5727 5726 5725 5725 5724 5723 5722 5722 5721 5720 5720 5720 5719 5719 5718 5717 5716 5715
5716 5718 5720 5722 5723 5724 5725 5726 5727 5728 5728 5729 5729 5729 5729 5729 5729 5729 5729 5728 5727 5727 5726 5725 5724 5723 5722 5722 5721 5720 5720 5719 5718 5717 5717 5717 5716 5716 5715 5714 5713 5713 5712
5709 5711 5712 5714 5716 5717 5719 5720 5721 5722 5723 5724 5724 5725 5725 5725 5725 5725 5725 5724 5724 5723 5723 5721 5720 5719 5719 5718 5718 5717 5716 5715 5714 5714 5713 5713 5713 5713 5712 5711 5710 5709 5708
5701 5703 5705 5706 5708 5710 5711 5713 5714 5716 5717 5718 5719 5720 5720 5720 5721 5721 5721 5721 5720 5720 5719 5718 5717 5716 5715 5714 5714 5713 5712 5711 5710 5710 5709 5709 5709 5709 5708 5707 5706 5705 5704
5692 5694 5696 5698 5700 5702 5704 5705 5707 5709 5711 5712 5713 5714 5714 5715 5716 5716 5716 5716 5716 5715 5715 5714 5713 5712 5711 5710 5709 5709 5708 5707 5706 5706 5705 5705 5705 5705 5705 5703 5702 5701 5700
5682 5684 5687 5689 5691 5693 5696 5698 5700 5701 5703 5705 5706 5707 5708 5709 5710 5710 5711 5711 5711 5711 5710 5709 5708 5708 5707 5706 5705 5704 5703 5703 5702 5702 5701 5701 5701 5701 5701 5699 5698 5697 5696
5670 5674 5677 5680 5682 5684 5687 5689 5691 5693 5695 5697 5698 5700 5701 5702 5703 5704 5705 5706 5706 5706 5705 5704 5704 5703 5702 5701 5700 5699 5698 5698 5698 5697 5698 5697 5697 5697 5696 5695 5694 5693 5692
5660 5663 5667 5670 5672 5675 5677 5680 5682 5685 5687 5689 5690 5692 5693 5695 5696 5697 5698 5699 5699 5699 5699 5699 5698 5697 5696 5696 5695 5694 5694 5693 5693 5693 5693 5693 5693 5693 5692 5691 5690 5689 5688
5650 5653 5657 5660 5663 5665 5668 5670 5673 5675 5677 5680 5682 5683 5685 5686 5688 5689 5691 5692 5692 5693 5693 5693 5692 5692 5691 5690 5690 5689 5689 5688 5688 5688 5688 5689 5688 5688 5688 5687 5686 5685 5684
5641 5643 5646 5650 5653 5655 5658 5660 5663 5665 5668 5670 5672 5673 5675 5677 5679 5681 5683 5684 5685 5685 5686 5686 5686 5686 5685 5684 5684 5684 5684 5684 5684 5684 5684 5684 5684 5684 5684 5683 5682 5681 5680
5631 5633 5636 5640 5642 5645 5647 5649 5652 5654 5656 5659 5661 5663 5665 5667 5669 5671 5673 5675 5676 5678 5679 5679 5679 5679 5679 5679 5679 5679 5680 5679 5679 5679 5680 5680 5679 5679 5679 5679 5678 5677 5676
5621 5623 5626 5630 5632 5634 5636 5638 5641 5643 5645 5647 5649 5651 5654 5656 5658 5661 5663 5665 5667 5669 5670 5671 5671 5671 5671 5672 5673 5674 5674 5674 5675 5675 5675 5675 5675 5675 5674 5674 5674 5673 5672
5611 5613 5615 5618 5621 5623 5625 5627 5629 5631 5633 5635 5636 5639 5641 5644 5647 5649 5651 5654 5656 5658 5659 5661 5662 5662 5663 5664 5665 5667 5668 5669 5670 5670 5670 5670 5670 5669 5669 5669 5669 5668 5668
5601 5602 5605 5607 5609 5612 5615 5617 5618 5619 5620 5622 5623 5625 5628 5631 5634 5637 5640 5642 5644 5646 5648 5650 5651 5653 5654 5655 5657 5659 5660 5662 5663 5664 5664 5665 5664 5664 5664 5664 5664 5663 5662
5591 5592 5594 5596 5598 5601 5603 5605 5607 5608 5608 5609 5610 5612 5615 5618 5621 5624 5628 5630 5632 5634 5637 5639 5641 5642 5644 5646 5647 5650 5652 5654 5656 5657 5658 5658 5658 5658 5658 5658 5658 5657 5656
5582 5583 5584 5586 5587 5589 5591 5592 5594 5594 5595 5595 5597 5598 5601 5604 5607 5610 5613 5617 5619 5621 5624 5627 5629 5631 5634 5635 5635 5637 5640 5644 5646 5649 5650 5651 5652 5652 5651 5651 5651 5651 5650
5571 5572 5574 5575 5576 5577 5578 5579 5580 5581 5582 5582 5584 5586 5588 5591 5593 5596 5598 5602 5605 5608 5610 5613 5616 5619 5622 5623 5623 5623 5625 5630 5637 5641 5642 5643 5644 5644 5644 5644 5645 5645 5645
5561 5562 5564 5564 5566 5566 5567 5568 5569 5570 5571 5571 5572 5574 5575 5577 5580 5582 5585 5588 5591 5594 5596 5599 5603 5605 5608 5611 5612 5612 5614 5619 5624 5629 5633 5635 5635 5635 5637 5637 5638 5638 5638
5552 5553 5553 5554 5555 5556 5556 5556 5556 5556 5557 5557 5558 5560 5562 5565 5567 5570 5573 5575 5578 5580 5583 5586 5589 5591 5594 5596 5599 5602 5604 5608 5609 5615 5621 5624 5625 5626 5627 5628 5629 5630 5630
5544 5544 5545 5545 5546 5545 5546 5545 5545 5545 5546 5547 5548 5549 5551 5554 5556 5558 5561 5563 5566 5568 5570 5573 5576 5578 5581 5583 5585 5588 5592 5594 5597 5600 5606 5611 5613 5617 5618 5619 5621 5621 5621
5537 5536 5536 5536 5536 5536 5536 5536 5535 5535 5535 5537 5538 5539 5541 5543 5545 5547 5549 5551 5553 5555 5558 5560 5563 5566 5568 5571 5573 5575 5577 5580 5583 5585 5591 5597 5601 5606 5608 5610 5612 5613 5613